Weather in Mogoytuy

Russia / Zabaykalsky Krai     50°21′02″N   113°50′19″E
temp.,
°C
wind,
m/s
gust,
m/s
humid.,
%
clouds,
%
prec.,
mm/h
press.,
hPa
HPBL,
m
13 may, thu
thu1300:00+6w33534 0.0 100832
03:00+5wsw22581 0.0 100910
06:00+4wnw226793 0.0 100916
09:00+7nw5757100 0.0 1009836
12:00+8nnw4454100 0.0 10081347
15:00+4nnw3589100 3.6 1010496
18:00+8nnw125961 1.1 1006634
21:00+7wsw4667100 1.4 1007140
14 may, fri
fri1400:00+5wnw5115882 0.0 1009303
03:00+2wnw51054100 0.0 1011194
06:000wnw5115699 0.0 1012345
09:00+3wnw89505 0.0 1012952
12:00+7nnw794998 0.0 10111720
15:00+10nw91134100 0.1 10092576
18:00+11nnw9113082 0.0 10092627
21:00+7nnw5104512 0.0 1012258
15 may, sat
sat1500:00+5w36525 0.0 1014104
03:00+3w35594 0.0 101669
06:00+2w22630 0.0 101718
09:00+8wnw47420 0.0 1016575
12:00+14wnw57240 0.0 10131869
15:00+17w46180 0.0 10102682
18:00+18wsw371513 0.0 10073644
21:00+13ssw462698 0.0 1007104
16 may, sun
sun1600:00+9nw11154591 0.0 1010861
03:00+5nw1017530 0.0 10121150
06:00+3wnw9166525 0.0 10121179
09:00+7nw11155348 0.0 10111453
12:00+13nw1013341 0.0 10091693
15:00+17nw10133279 0.0 10072209
18:00+16nw9143994 0.0 10072314
21:00+12w345197 0.0 100746
17 may, mon
mon1700:00+10wnw41259100 0.0 1008315
03:00+8wnw51271100 0.0 1009526
06:00+7wnw5137342 0.0 1009414
09:00+11wnw81160100 0.0 1008987
12:00+17wnw7103967 0.0 10052044
15:00+19wnw7113599 0.0 10032400
18:00+13nnw81059100 0.1 10041068
21:00+11nw71159100 0.1 10061073